Year,Month,Day,Hour,Minute,Value (Times are PST for temperature in C)
2008,10,09,00,00,3.80
2008,10,09,00,01,3.80
2008,10,09,00,02,3.80
2008,10,09,00,03,3.80
2008,10,09,00,04,3.80
2008,10,09,00,05,3.80
2008,10,09,00,06,3.80
2008,10,09,00,07,3.80
2008,10,09,00,08,3.80
2008,10,09,00,09,3.80
2008,10,09,00,10,3.80
2008,10,09,00,11,3.80
2008,10,09,00,12,3.80
2008,10,09,00,13,3.80
2008,10,09,00,14,3.80
2008,10,09,00,15,3.80
2008,10,09,00,16,3.70
2008,10,09,00,17,3.70
2008,10,09,00,18,3.70
2008,10,09,00,19,3.70
2008,10,09,00,20,3.70
2008,10,09,00,21,3.60
2008,10,09,00,22,3.60
2008,10,09,00,23,3.60
2008,10,09,00,24,3.60
2008,10,09,00,25,3.60
2008,10,09,00,26,3.60
2008,10,09,00,27,3.50
2008,10,09,00,28,3.50
2008,10,09,00,29,3.50
2008,10,09,00,30,3.50
2008,10,09,00,31,3.50
2008,10,09,00,32,3.50
2008,10,09,00,33,3.40
2008,10,09,00,34,3.50
2008,10,09,00,35,3.40
2008,10,09,00,36,3.40
2008,10,09,00,37,3.40
2008,10,09,00,38,3.40
2008,10,09,00,39,3.40
2008,10,09,00,40,3.40
2008,10,09,00,41,3.40
2008,10,09,00,42,3.40
2008,10,09,00,43,3.40
2008,10,09,00,44,3.40
2008,10,09,00,45,3.40
2008,10,09,00,46,3.40
2008,10,09,00,47,3.40
2008,10,09,00,48,3.40
2008,10,09,00,49,3.40
2008,10,09,00,50,3.40
2008,10,09,00,51,3.40
2008,10,09,00,52,3.40
2008,10,09,00,53,3.40
2008,10,09,00,54,3.40
2008,10,09,00,55,3.40
2008,10,09,00,56,3.40
2008,10,09,00,57,3.40
2008,10,09,00,58,3.40
2008,10,09,00,59,3.40
2008,10,09,01,00,3.40
2008,10,09,01,01,3.40
2008,10,09,01,02,3.40
2008,10,09,01,03,3.30
2008,10,09,01,04,3.30
2008,10,09,01,05,3.30
2008,10,09,01,06,3.30
2008,10,09,01,07,3.30
2008,10,09,01,08,3.30
2008,10,09,01,09,3.30
2008,10,09,01,10,3.30
2008,10,09,01,11,3.30
2008,10,09,01,12,3.30
2008,10,09,01,13,3.30
2008,10,09,01,14,3.20
2008,10,09,01,15,3.20
2008,10,09,01,16,3.20
2008,10,09,01,17,3.20
2008,10,09,01,18,3.20
2008,10,09,01,19,3.20
2008,10,09,01,20,3.20
2008,10,09,01,21,3.30
2008,10,09,01,22,3.30
2008,10,09,01,23,3.30
2008,10,09,01,24,3.30
2008,10,09,01,25,3.30
2008,10,09,01,26,3.30
2008,10,09,01,27,3.30
2008,10,09,01,28,3.30
2008,10,09,01,29,3.30
2008,10,09,01,30,3.30
2008,10,09,01,31,3.30
2008,10,09,01,32,3.30
2008,10,09,01,33,3.30
2008,10,09,01,34,3.30
2008,10,09,01,35,3.30
2008,10,09,01,36,3.30
2008,10,09,01,37,3.30
2008,10,09,01,38,3.30
2008,10,09,01,39,3.30
2008,10,09,01,40,3.30
2008,10,09,01,41,3.30
2008,10,09,01,42,3.30
2008,10,09,01,43,3.30
2008,10,09,01,44,3.30
2008,10,09,01,45,3.30
2008,10,09,01,46,3.30
2008,10,09,01,47,3.30
2008,10,09,01,48,3.30
2008,10,09,01,49,3.20
2008,10,09,01,50,3.20
2008,10,09,01,51,3.20
2008,10,09,01,52,3.20
2008,10,09,01,53,3.20
2008,10,09,01,54,3.20
2008,10,09,01,55,3.20
2008,10,09,01,56,3.20
2008,10,09,01,57,3.10
2008,10,09,01,58,3.10
2008,10,09,01,59,3.10
2008,10,09,02,00,3.10
2008,10,09,02,01,3.10
2008,10,09,02,02,3.10
2008,10,09,02,03,3.10
2008,10,09,02,04,3.20
2008,10,09,02,05,3.20
2008,10,09,02,06,3.20
2008,10,09,02,07,3.20
2008,10,09,02,08,3.20
2008,10,09,02,09,3.20
2008,10,09,02,10,3.20
2008,10,09,02,11,3.20
2008,10,09,02,12,3.20
2008,10,09,02,13,3.20
2008,10,09,02,14,3.20
2008,10,09,02,15,3.20
2008,10,09,02,16,3.20
2008,10,09,02,17,3.10
2008,10,09,02,18,3.10
2008,10,09,02,19,3.10
2008,10,09,02,20,3.10
2008,10,09,02,21,3.10
2008,10,09,02,22,3.10
2008,10,09,02,23,3.10
2008,10,09,02,24,3.10
2008,10,09,02,25,3.10
2008,10,09,02,26,3.10
2008,10,09,02,27,3.10
2008,10,09,02,28,3.10
2008,10,09,02,29,3.10
2008,10,09,02,30,3.10
2008,10,09,02,31,3.10
2008,10,09,02,32,3.10
2008,10,09,02,33,3.10
2008,10,09,02,34,3.10
2008,10,09,02,35,3.10
2008,10,09,02,36,3.10
2008,10,09,02,37,3.10
2008,10,09,02,38,3.10
2008,10,09,02,39,3.10
2008,10,09,02,40,3.10
2008,10,09,02,41,3.10
2008,10,09,02,42,3.10
2008,10,09,02,43,3.10
2008,10,09,02,44,3.10
2008,10,09,02,45,3.10
2008,10,09,02,46,3.00
2008,10,09,02,47,3.00
2008,10,09,02,48,3.00
2008,10,09,02,49,3.00
2008,10,09,02,50,3.00
2008,10,09,02,51,3.00
2008,10,09,02,52,3.00
2008,10,09,02,53,3.00
2008,10,09,02,54,3.00
2008,10,09,02,55,3.00
2008,10,09,02,56,3.00
2008,10,09,02,57,3.00
2008,10,09,02,58,3.00
2008,10,09,02,59,3.00
2008,10,09,03,00,2.90
2008,10,09,03,01,2.90
2008,10,09,03,02,2.90
2008,10,09,03,03,2.90
2008,10,09,03,04,2.90
2008,10,09,03,05,2.90
2008,10,09,03,06,2.90
2008,10,09,03,07,2.90
2008,10,09,03,08,2.90
2008,10,09,03,09,2.90
2008,10,09,03,10,2.90
2008,10,09,03,11,2.90
2008,10,09,03,12,2.90
2008,10,09,03,13,2.90
2008,10,09,03,14,2.90
2008,10,09,03,15,2.90
2008,10,09,03,16,2.90
2008,10,09,03,17,2.90
2008,10,09,03,18,2.90
2008,10,09,03,19,2.90
2008,10,09,03,20,2.90
2008,10,09,03,21,2.90
2008,10,09,03,22,2.90
2008,10,09,03,23,2.90
2008,10,09,03,24,2.90
2008,10,09,03,25,2.90
2008,10,09,03,26,2.90
2008,10,09,03,27,2.90
2008,10,09,03,28,2.90
2008,10,09,03,29,2.90
2008,10,09,03,30,2.90
2008,10,09,03,31,2.90
2008,10,09,03,32,2.90
2008,10,09,03,33,2.80
2008,10,09,03,34,2.80
2008,10,09,03,35,2.80
2008,10,09,03,36,2.80
2008,10,09,03,37,2.80
2008,10,09,03,38,2.80
2008,10,09,03,39,2.80
2008,10,09,03,40,2.80
2008,10,09,03,41,2.70
2008,10,09,03,42,2.70
2008,10,09,03,43,2.70
2008,10,09,03,44,2.70
2008,10,09,03,45,2.70
2008,10,09,03,46,2.70
2008,10,09,03,47,2.70
2008,10,09,03,48,2.70
2008,10,09,03,49,2.70
2008,10,09,03,50,2.70
2008,10,09,03,51,2.60
2008,10,09,03,52,2.60
2008,10,09,03,53,2.60
2008,10,09,03,54,2.60
2008,10,09,03,55,2.60
2008,10,09,03,56,2.60
2008,10,09,03,57,2.60
2008,10,09,03,58,2.60
2008,10,09,03,59,2.60
2008,10,09,04,00,2.60
2008,10,09,04,01,2.60
2008,10,09,04,02,2.60
2008,10,09,04,03,2.60
2008,10,09,04,04,2.60
2008,10,09,04,05,2.60
2008,10,09,04,06,2.60
2008,10,09,04,07,2.70
2008,10,09,04,08,2.70
2008,10,09,04,09,2.70
2008,10,09,04,10,2.70
2008,10,09,04,11,2.70
2008,10,09,04,12,2.70
2008,10,09,04,13,2.70
2008,10,09,04,14,2.70
2008,10,09,04,15,2.70
2008,10,09,04,16,2.70
2008,10,09,04,17,2.70
2008,10,09,04,18,2.70
2008,10,09,04,19,2.70
2008,10,09,04,20,2.70
2008,10,09,04,21,2.70
2008,10,09,04,22,2.70
2008,10,09,04,23,2.70
2008,10,09,04,24,2.70
2008,10,09,04,25,2.70
2008,10,09,04,26,2.70
2008,10,09,04,27,2.70
2008,10,09,04,28,2.70
2008,10,09,04,29,2.70
2008,10,09,04,30,2.70
2008,10,09,04,31,2.70
2008,10,09,04,32,2.70
2008,10,09,04,33,2.70
2008,10,09,04,34,2.80
2008,10,09,04,35,2.80
2008,10,09,04,36,2.80
2008,10,09,04,37,2.70
2008,10,09,04,38,2.70
2008,10,09,04,39,2.70
2008,10,09,04,40,2.70
2008,10,09,04,41,2.70
2008,10,09,04,42,2.70
2008,10,09,04,43,2.70
2008,10,09,04,44,2.60
2008,10,09,04,45,2.60
2008,10,09,04,46,2.60
2008,10,09,04,47,2.60
2008,10,09,04,48,2.60
2008,10,09,04,49,2.60
2008,10,09,04,50,2.60
2008,10,09,04,51,2.60
2008,10,09,04,52,2.50
2008,10,09,04,53,2.50
2008,10,09,04,54,2.50
2008,10,09,04,55,2.50
2008,10,09,04,56,2.40
2008,10,09,04,57,2.40
2008,10,09,04,58,2.40
2008,10,09,04,59,2.40
2008,10,09,05,00,2.40
2008,10,09,05,01,2.40
2008,10,09,05,02,2.40
2008,10,09,05,03,2.40
2008,10,09,05,04,2.40
2008,10,09,05,05,2.40
2008,10,09,05,06,2.50
2008,10,09,05,07,2.50
2008,10,09,05,08,2.50
2008,10,09,05,09,2.50
2008,10,09,05,10,2.50
2008,10,09,05,11,2.60
2008,10,09,05,12,2.50
2008,10,09,05,13,2.50
2008,10,09,05,14,2.60
2008,10,09,05,15,2.60
2008,10,09,05,16,2.60
2008,10,09,05,17,2.50
2008,10,09,05,18,2.50
2008,10,09,05,19,2.50
2008,10,09,05,20,2.50
2008,10,09,05,21,2.50
2008,10,09,05,22,2.50
2008,10,09,05,23,2.50
2008,10,09,05,24,2.50
2008,10,09,05,25,2.50
2008,10,09,05,26,2.50
2008,10,09,05,27,2.50
2008,10,09,05,28,2.50
2008,10,09,05,29,2.60
2008,10,09,05,30,2.60
2008,10,09,05,31,2.60
2008,10,09,05,32,2.60
2008,10,09,05,33,2.60
2008,10,09,05,34,2.70
2008,10,09,05,35,2.70
2008,10,09,05,36,2.70
2008,10,09,05,37,2.70
2008,10,09,05,38,2.70
2008,10,09,05,39,2.70
2008,10,09,05,40,2.70
2008,10,09,05,41,2.70
2008,10,09,05,42,2.70
2008,10,09,05,43,2.70
2008,10,09,05,44,2.70
2008,10,09,05,45,2.70
2008,10,09,05,46,2.70
2008,10,09,05,47,2.70
2008,10,09,05,48,2.60
2008,10,09,05,49,2.60
2008,10,09,05,50,2.60
2008,10,09,05,51,2.60
2008,10,09,05,52,2.60
2008,10,09,05,53,2.60
2008,10,09,05,54,2.60
2008,10,09,05,55,2.60
2008,10,09,05,56,2.60
2008,10,09,05,57,2.60
2008,10,09,05,58,2.60
2008,10,09,05,59,2.60
2008,10,09,06,00,2.70
2008,10,09,06,01,2.70
2008,10,09,06,02,2.70
2008,10,09,06,03,2.70
2008,10,09,06,04,2.70
2008,10,09,06,05,2.70
2008,10,09,06,06,2.70
2008,10,09,06,07,2.70
2008,10,09,06,08,2.70
2008,10,09,06,09,2.80
2008,10,09,06,10,2.80
2008,10,09,06,11,2.80
2008,10,09,06,12,2.80
2008,10,09,06,13,2.70
2008,10,09,06,14,2.70
2008,10,09,06,15,2.70
2008,10,09,06,16,2.70
2008,10,09,06,17,2.70
2008,10,09,06,18,2.70
2008,10,09,06,19,2.70
2008,10,09,06,20,2.70
2008,10,09,06,21,2.70
2008,10,09,06,22,2.70
2008,10,09,06,23,2.70
2008,10,09,06,24,2.70
2008,10,09,06,25,2.70
2008,10,09,06,26,2.70
2008,10,09,06,27,2.70
2008,10,09,06,28,2.70
2008,10,09,06,29,2.70
2008,10,09,06,30,2.70
2008,10,09,06,31,2.70
2008,10,09,06,32,2.70
2008,10,09,06,33,2.70
2008,10,09,06,34,2.60
2008,10,09,06,35,2.60
2008,10,09,06,36,2.60
2008,10,09,06,37,2.60
2008,10,09,06,38,2.50
2008,10,09,06,39,2.50
2008,10,09,06,40,2.50
2008,10,09,06,41,2.50
2008,10,09,06,42,2.50
2008,10,09,06,43,2.50
2008,10,09,06,44,2.50
2008,10,09,06,45,2.50
2008,10,09,06,46,2.50
2008,10,09,06,47,2.50
2008,10,09,06,48,2.50
2008,10,09,06,49,2.40
2008,10,09,06,50,2.40
2008,10,09,06,51,2.40
2008,10,09,06,52,2.40
2008,10,09,06,53,2.40
2008,10,09,06,54,2.40
2008,10,09,06,55,2.40
2008,10,09,06,56,2.40
2008,10,09,06,57,2.40
2008,10,09,06,58,2.40
2008,10,09,06,59,2.40
2008,10,09,07,00,2.40
2008,10,09,07,01,2.40
2008,10,09,07,02,2.40
2008,10,09,07,03,2.40
2008,10,09,07,04,2.40
2008,10,09,07,05,2.40
2008,10,09,07,06,2.40
2008,10,09,07,07,2.40
2008,10,09,07,08,2.40
2008,10,09,07,09,2.40
2008,10,09,07,10,2.40
2008,10,09,07,11,2.40
2008,10,09,07,12,2.50
2008,10,09,07,13,2.50
2008,10,09,07,14,2.50
2008,10,09,07,15,2.50
2008,10,09,07,16,2.50
2008,10,09,07,17,2.50
2008,10,09,07,18,2.50
2008,10,09,07,19,2.50
2008,10,09,07,20,2.60
2008,10,09,07,21,2.60
2008,10,09,07,22,2.50
2008,10,09,07,23,2.50
2008,10,09,07,24,2.50
2008,10,09,07,25,2.50
2008,10,09,07,26,2.40
2008,10,09,07,27,2.40
2008,10,09,07,28,2.40
2008,10,09,07,29,2.40
2008,10,09,07,30,2.40
2008,10,09,07,31,2.40
2008,10,09,07,32,2.40
2008,10,09,07,33,2.40
2008,10,09,07,34,2.30
2008,10,09,07,35,2.30
2008,10,09,07,36,2.30
2008,10,09,07,37,2.30
2008,10,09,07,38,2.30
2008,10,09,07,39,2.30
2008,10,09,07,40,2.30
2008,10,09,07,41,2.30
2008,10,09,07,42,2.30
2008,10,09,07,43,2.30
2008,10,09,07,44,2.30
2008,10,09,07,45,2.40
2008,10,09,07,46,2.40
2008,10,09,07,47,2.40
2008,10,09,07,48,2.40
2008,10,09,07,49,2.40
2008,10,09,07,50,2.40
2008,10,09,07,51,2.50
2008,10,09,07,52,2.50
2008,10,09,07,53,2.50
2008,10,09,07,54,2.60
2008,10,09,07,55,2.60
2008,10,09,07,56,2.60
2008,10,09,07,57,2.60
2008,10,09,07,58,2.60
2008,10,09,07,59,2.60
2008,10,09,08,00,2.70
2008,10,09,08,01,2.70
2008,10,09,08,02,2.70
2008,10,09,08,03,2.70
2008,10,09,08,04,2.70
2008,10,09,08,05,2.70
2008,10,09,08,06,2.70
2008,10,09,08,07,2.70
2008,10,09,08,08,2.70
2008,10,09,08,09,2.70
2008,10,09,08,10,2.70
2008,10,09,08,11,2.70
2008,10,09,08,12,2.70
2008,10,09,08,13,2.70
2008,10,09,08,14,2.70
2008,10,09,08,15,2.70
2008,10,09,08,16,2.70
2008,10,09,08,17,2.70
2008,10,09,08,18,2.70
2008,10,09,08,19,2.70
2008,10,09,08,20,2.70
2008,10,09,08,21,2.60
2008,10,09,08,22,2.60
2008,10,09,08,23,2.60
2008,10,09,08,24,2.60
2008,10,09,08,25,2.60
2008,10,09,08,26,2.60
2008,10,09,08,27,2.70
2008,10,09,08,28,2.70
2008,10,09,08,29,2.70
2008,10,09,08,30,2.70
2008,10,09,08,31,2.70
2008,10,09,08,32,2.70
2008,10,09,08,33,2.70
2008,10,09,08,34,2.70
2008,10,09,08,35,2.70
2008,10,09,08,36,2.70
2008,10,09,08,37,2.70
2008,10,09,08,38,2.70
2008,10,09,08,39,2.70
2008,10,09,08,40,2.70
2008,10,09,08,41,2.80
2008,10,09,08,42,2.80
2008,10,09,08,43,2.80
2008,10,09,08,44,2.80
2008,10,09,08,45,2.80
2008,10,09,08,46,2.90
2008,10,09,08,47,2.90
2008,10,09,08,48,2.90
2008,10,09,08,49,2.90
2008,10,09,08,50,3.00
2008,10,09,08,51,3.00
2008,10,09,08,52,3.00
2008,10,09,08,53,3.10
2008,10,09,08,54,3.10
2008,10,09,08,55,3.10
2008,10,09,08,56,3.10
2008,10,09,08,57,3.10
2008,10,09,08,58,3.20
2008,10,09,08,59,3.20
2008,10,09,09,00,3.20
2008,10,09,09,01,3.20
2008,10,09,09,02,3.20
2008,10,09,09,03,3.30
2008,10,09,09,04,3.30
2008,10,09,09,05,3.30
2008,10,09,09,06,3.30
2008,10,09,09,07,3.30
2008,10,09,09,08,3.40
2008,10,09,09,09,3.40
2008,10,09,09,10,3.40
2008,10,09,09,11,3.40
2008,10,09,09,12,3.40
2008,10,09,09,13,3.50
2008,10,09,09,14,3.50
2008,10,09,09,15,3.50
2008,10,09,09,16,3.50
2008,10,09,09,17,3.60
2008,10,09,09,18,3.60
2008,10,09,09,19,3.60
2008,10,09,09,20,3.60
2008,10,09,09,21,3.70
2008,10,09,09,22,3.70
2008,10,09,09,23,3.70
2008,10,09,09,24,3.80
2008,10,09,09,25,3.80
2008,10,09,09,26,3.80
2008,10,09,09,27,3.90
2008,10,09,09,28,3.90
2008,10,09,09,29,3.90
2008,10,09,09,30,4.00
2008,10,09,09,31,4.00
2008,10,09,09,32,4.00
2008,10,09,09,33,4.10
2008,10,09,09,34,4.10
2008,10,09,09,35,4.10
2008,10,09,09,36,4.10
2008,10,09,09,37,4.20
2008,10,09,09,38,4.20
2008,10,09,09,39,4.20
2008,10,09,09,40,4.20
2008,10,09,09,41,4.20
2008,10,09,09,42,4.30
2008,10,09,09,43,4.30
2008,10,09,09,44,4.30
2008,10,09,09,45,4.30
2008,10,09,09,46,4.40
2008,10,09,09,47,4.40
2008,10,09,09,48,4.40
2008,10,09,09,49,4.50
2008,10,09,09,50,4.50
2008,10,09,09,51,4.50
2008,10,09,09,52,4.60
2008,10,09,09,53,4.60
2008,10,09,09,54,4.60
2008,10,09,09,55,4.60
2008,10,09,09,56,4.60
2008,10,09,09,57,4.60
2008,10,09,09,58,4.60
2008,10,09,09,59,4.60
2008,10,09,10,00,4.70
2008,10,09,10,01,4.70
2008,10,09,10,02,4.70
2008,10,09,10,03,4.70
2008,10,09,10,04,4.80
2008,10,09,10,05,4.80
2008,10,09,10,06,4.80
2008,10,09,10,07,4.80
2008,10,09,10,08,4.90
2008,10,09,10,09,4.90
2008,10,09,10,10,4.90
2008,10,09,10,11,5.00
2008,10,09,10,12,5.00
2008,10,09,10,13,5.10
2008,10,09,10,14,5.10
2008,10,09,10,15,5.10
2008,10,09,10,16,5.20
2008,10,09,10,17,5.20
2008,10,09,10,18,5.20
2008,10,09,10,19,5.20
2008,10,09,10,20,5.30
2008,10,09,10,21,5.30
2008,10,09,10,22,5.30
2008,10,09,10,23,5.30
2008,10,09,10,24,5.30
2008,10,09,10,25,5.40
2008,10,09,10,26,5.40
2008,10,09,10,27,5.50
2008,10,09,10,28,5.50
2008,10,09,10,29,5.60
2008,10,09,10,30,5.60
2008,10,09,10,31,5.60
2008,10,09,10,32,5.70
2008,10,09,10,33,5.70
2008,10,09,10,34,5.70
2008,10,09,10,35,5.80
2008,10,09,10,36,5.80
2008,10,09,10,37,5.90
2008,10,09,10,38,5.90
2008,10,09,10,39,5.90
2008,10,09,10,40,5.90
2008,10,09,10,41,6.00
2008,10,09,10,42,6.00
2008,10,09,10,43,6.10
2008,10,09,10,44,6.10
2008,10,09,10,45,6.20
2008,10,09,10,46,6.20
2008,10,09,10,47,6.20
2008,10,09,10,48,6.30
2008,10,09,10,49,6.30
2008,10,09,10,50,6.30
2008,10,09,10,51,6.40
2008,10,09,10,52,6.40
2008,10,09,10,53,6.50
2008,10,09,10,54,6.50
2008,10,09,10,55,6.60
2008,10,09,10,56,6.60
2008,10,09,10,57,6.60
2008,10,09,10,58,6.70
2008,10,09,10,59,6.80
2008,10,09,11,00,6.90
2008,10,09,11,01,6.90
2008,10,09,11,02,7.00
2008,10,09,11,03,7.00
2008,10,09,11,04,7.10
2008,10,09,11,05,7.10
2008,10,09,11,06,7.20
2008,10,09,11,07,7.20
2008,10,09,11,08,7.20
2008,10,09,11,09,7.30
2008,10,09,11,10,7.30
2008,10,09,11,11,7.40
2008,10,09,11,12,7.40
2008,10,09,11,13,7.50
2008,10,09,11,14,7.50
2008,10,09,11,15,7.60
2008,10,09,11,16,7.60
2008,10,09,11,17,7.60
2008,10,09,11,18,7.70
2008,10,09,11,19,7.70
2008,10,09,11,20,7.70
2008,10,09,11,21,7.80
2008,10,09,11,22,7.80
2008,10,09,11,23,7.80
2008,10,09,11,24,7.80
2008,10,09,11,25,7.90
2008,10,09,11,26,7.90
2008,10,09,11,27,8.00
2008,10,09,11,28,8.00
2008,10,09,11,29,8.10
2008,10,09,11,30,8.10
2008,10,09,11,31,8.10
2008,10,09,11,32,8.20
2008,10,09,11,33,8.20
2008,10,09,11,34,8.20
2008,10,09,11,35,8.20
2008,10,09,11,36,8.20
2008,10,09,11,37,8.30
2008,10,09,11,38,8.30
2008,10,09,11,39,8.30
2008,10,09,11,40,8.30
2008,10,09,11,41,8.30
2008,10,09,11,42,8.30
2008,10,09,11,43,8.40
2008,10,09,11,44,8.40
2008,10,09,11,45,8.40
2008,10,09,11,46,8.40
2008,10,09,11,47,8.40
2008,10,09,11,48,8.50
2008,10,09,11,49,8.50
2008,10,09,11,50,8.60
2008,10,09,11,51,8.60
2008,10,09,11,52,8.60
2008,10,09,11,53,8.60
2008,10,09,11,54,8.60
2008,10,09,11,55,8.60
2008,10,09,11,56,8.60
2008,10,09,11,57,8.70
2008,10,09,11,58,8.70
2008,10,09,11,59,8.70
2008,10,09,12,00,8.70
2008,10,09,12,01,8.70
2008,10,09,12,02,8.70
2008,10,09,12,03,8.70
2008,10,09,12,04,8.70
2008,10,09,12,05,8.80
2008,10,09,12,06,8.80
2008,10,09,12,07,8.80
2008,10,09,12,08,8.80
2008,10,09,12,09,8.80
2008,10,09,12,10,8.80
2008,10,09,12,11,8.80
2008,10,09,12,12,8.80
2008,10,09,12,13,8.80
2008,10,09,12,14,8.80
2008,10,09,12,15,8.80
2008,10,09,12,16,8.80
2008,10,09,12,17,8.80
2008,10,09,12,18,8.80
2008,10,09,12,19,8.80
2008,10,09,12,20,8.80
2008,10,09,12,21,8.90
2008,10,09,12,22,8.90
2008,10,09,12,23,8.90
2008,10,09,12,24,8.90
2008,10,09,12,25,8.90
2008,10,09,12,26,8.90
2008,10,09,12,27,8.90
2008,10,09,12,28,8.90
2008,10,09,12,29,9.00
2008,10,09,12,30,9.00
2008,10,09,12,31,9.00
2008,10,09,12,32,9.00
2008,10,09,12,33,9.00
2008,10,09,12,34,9.00
2008,10,09,12,35,9.00
2008,10,09,12,36,9.10
2008,10,09,12,37,9.10
2008,10,09,12,38,9.10
2008,10,09,12,39,9.00
2008,10,09,12,40,9.00
2008,10,09,12,41,9.00
2008,10,09,12,42,9.00
2008,10,09,12,43,9.00
2008,10,09,12,44,9.00
2008,10,09,12,45,9.00
2008,10,09,12,46,8.90
2008,10,09,12,47,8.90
2008,10,09,12,48,9.00
2008,10,09,12,49,9.00
2008,10,09,12,50,9.00
2008,10,09,12,51,9.00
2008,10,09,12,52,9.00
2008,10,09,12,53,9.00
2008,10,09,12,54,9.00
2008,10,09,12,55,9.00
2008,10,09,12,56,9.00
2008,10,09,12,57,9.00
2008,10,09,12,58,8.90
2008,10,09,12,59,8.90
2008,10,09,13,00,8.90
2008,10,09,13,01,8.80
2008,10,09,13,02,8.80
2008,10,09,13,03,8.80
2008,10,09,13,04,8.80
2008,10,09,13,05,8.80
2008,10,09,13,06,8.70
2008,10,09,13,07,8.70
2008,10,09,13,08,8.70
2008,10,09,13,09,8.70
2008,10,09,13,10,8.70
2008,10,09,13,11,8.70
2008,10,09,13,12,8.70
2008,10,09,13,13,8.70
2008,10,09,13,14,8.70
2008,10,09,13,15,8.80
2008,10,09,13,16,8.80
2008,10,09,13,17,8.80
2008,10,09,13,18,8.80
2008,10,09,13,19,8.80
2008,10,09,13,20,8.80
2008,10,09,13,21,8.80
2008,10,09,13,22,8.80
2008,10,09,13,23,8.80
2008,10,09,13,24,8.80
2008,10,09,13,25,8.80
2008,10,09,13,26,8.80
2008,10,09,13,27,8.90
2008,10,09,13,28,8.90
2008,10,09,13,29,8.90
2008,10,09,13,30,8.90
2008,10,09,13,31,8.90
2008,10,09,13,32,8.90
2008,10,09,13,33,8.90
2008,10,09,13,34,8.90
2008,10,09,13,35,8.90
2008,10,09,13,36,8.90
2008,10,09,13,37,8.90
2008,10,09,13,38,8.90
2008,10,09,13,39,8.90
2008,10,09,13,40,8.90
2008,10,09,13,41,8.80
2008,10,09,13,42,8.80
2008,10,09,13,43,8.80
2008,10,09,13,44,8.80
2008,10,09,13,45,8.70
2008,10,09,13,46,8.70
2008,10,09,13,47,8.70
2008,10,09,13,48,8.70
2008,10,09,13,49,8.60
2008,10,09,13,50,8.60
2008,10,09,13,51,8.60
2008,10,09,13,52,8.50
2008,10,09,13,53,8.50
2008,10,09,13,54,8.50
2008,10,09,13,55,8.50
2008,10,09,13,56,8.50
2008,10,09,13,57,8.50
2008,10,09,13,58,8.50
2008,10,09,13,59,8.50
2008,10,09,14,00,8.40
2008,10,09,14,01,8.40
2008,10,09,14,02,8.40
2008,10,09,14,03,8.40
2008,10,09,14,04,8.40
2008,10,09,14,05,8.30
2008,10,09,14,06,8.30
2008,10,09,14,07,8.30
2008,10,09,14,08,8.30
2008,10,09,14,09,8.30
2008,10,09,14,10,8.30
2008,10,09,14,11,8.20
2008,10,09,14,12,8.20
2008,10,09,14,13,8.20
2008,10,09,14,14,8.20
2008,10,09,14,15,8.30
2008,10,09,14,16,8.30
2008,10,09,14,17,8.30
2008,10,09,14,18,8.30
2008,10,09,14,19,8.30
2008,10,09,14,20,8.30
2008,10,09,14,21,8.30
2008,10,09,14,22,8.30
2008,10,09,14,23,8.30
2008,10,09,14,24,8.30
2008,10,09,14,25,8.30
2008,10,09,14,26,8.30
2008,10,09,14,27,8.30
2008,10,09,14,28,8.30
2008,10,09,14,29,8.30
2008,10,09,14,30,8.30
2008,10,09,14,31,8.30
2008,10,09,14,32,8.30
2008,10,09,14,33,8.30
2008,10,09,14,34,8.30
2008,10,09,14,35,8.30
2008,10,09,14,36,8.30
2008,10,09,14,37,8.30
2008,10,09,14,38,8.30
2008,10,09,14,39,8.30
2008,10,09,14,40,8.30
2008,10,09,14,41,8.30
2008,10,09,14,42,8.40
2008,10,09,14,43,8.40
2008,10,09,14,44,8.40
2008,10,09,14,45,8.40
2008,10,09,14,46,8.40
2008,10,09,14,47,8.40
2008,10,09,14,48,8.40
2008,10,09,14,49,8.40
2008,10,09,14,50,8.40
2008,10,09,14,51,8.30
2008,10,09,14,52,8.30
2008,10,09,14,53,8.30
2008,10,09,14,54,8.20
2008,10,09,14,55,8.20
2008,10,09,14,56,8.20
2008,10,09,14,57,8.20
2008,10,09,14,58,8.10
2008,10,09,14,59,8.10
2008,10,09,15,00,8.10
2008,10,09,15,01,8.00
2008,10,09,15,02,8.00
2008,10,09,15,03,7.90
2008,10,09,15,04,7.90
2008,10,09,15,05,7.90
2008,10,09,15,06,7.80
2008,10,09,15,07,7.80
2008,10,09,15,08,7.80
2008,10,09,15,09,7.80
2008,10,09,15,10,7.70
2008,10,09,15,11,7.70
2008,10,09,15,12,7.70
2008,10,09,15,13,7.60
2008,10,09,15,14,7.60
2008,10,09,15,15,7.60
2008,10,09,15,16,7.50
2008,10,09,15,17,7.50
2008,10,09,15,18,7.50
2008,10,09,15,19,7.40
2008,10,09,15,20,7.40
2008,10,09,15,21,7.40
2008,10,09,15,22,7.40
2008,10,09,15,23,7.40
2008,10,09,15,24,7.40
2008,10,09,15,25,7.30
2008,10,09,15,26,7.30
2008,10,09,15,27,7.30
2008,10,09,15,28,7.30
2008,10,09,15,29,7.30
2008,10,09,15,30,7.30
2008,10,09,15,31,7.30
2008,10,09,15,32,7.30
2008,10,09,15,33,7.20
2008,10,09,15,34,7.20
2008,10,09,15,35,7.20
2008,10,09,15,36,7.20
2008,10,09,15,37,7.20
2008,10,09,15,38,7.20
2008,10,09,15,39,7.20
2008,10,09,15,40,7.20
2008,10,09,15,41,7.20
2008,10,09,15,42,7.20
2008,10,09,15,43,7.20
2008,10,09,15,44,7.20
2008,10,09,15,45,7.20
2008,10,09,15,46,7.20
2008,10,09,15,47,7.20
2008,10,09,15,48,7.20
2008,10,09,15,49,7.20
2008,10,09,15,50,7.20
2008,10,09,15,51,7.20
2008,10,09,15,52,7.20
2008,10,09,15,53,7.20
2008,10,09,15,54,7.20
2008,10,09,15,55,7.20
2008,10,09,15,56,7.10
2008,10,09,15,57,7.10
2008,10,09,15,58,7.10
2008,10,09,15,59,7.10
2008,10,09,16,00,7.10
2008,10,09,16,01,7.10
2008,10,09,16,02,7.10
2008,10,09,16,03,7.10
2008,10,09,16,04,7.10
2008,10,09,16,05,7.10
2008,10,09,16,06,7.10
2008,10,09,16,07,7.10
2008,10,09,16,08,7.10
2008,10,09,16,09,7.10
2008,10,09,16,10,7.10
2008,10,09,16,11,7.20
2008,10,09,16,12,7.20
2008,10,09,16,13,7.20
2008,10,09,16,14,7.20
2008,10,09,16,15,7.20
2008,10,09,16,16,7.20
2008,10,09,16,17,7.20
2008,10,09,16,18,7.20
2008,10,09,16,19,7.20
2008,10,09,16,20,7.30
2008,10,09,16,21,7.30
2008,10,09,16,22,7.30
2008,10,09,16,23,7.40
2008,10,09,16,24,7.40
2008,10,09,16,25,7.40
2008,10,09,16,26,7.40
2008,10,09,16,27,7.40
2008,10,09,16,28,7.40
2008,10,09,16,29,7.40
2008,10,09,16,30,7.40
2008,10,09,16,31,7.40
2008,10,09,16,32,7.30
2008,10,09,16,33,7.30
2008,10,09,16,34,7.30
2008,10,09,16,35,7.30
2008,10,09,16,36,7.30
2008,10,09,16,37,7.30
2008,10,09,16,38,7.30
2008,10,09,16,39,7.30
2008,10,09,16,40,7.30
2008,10,09,16,41,7.30
2008,10,09,16,42,7.30
2008,10,09,16,43,7.30
2008,10,09,16,44,7.30
2008,10,09,16,45,7.40
2008,10,09,16,46,7.40
2008,10,09,16,47,7.40
2008,10,09,16,48,7.40
2008,10,09,16,49,7.50
2008,10,09,16,50,7.50
2008,10,09,16,51,7.50
2008,10,09,16,52,7.50
2008,10,09,16,53,7.50
2008,10,09,16,54,7.50
2008,10,09,16,55,7.40
2008,10,09,16,56,7.50
2008,10,09,16,57,7.50
2008,10,09,16,58,7.50
2008,10,09,16,59,7.50
2008,10,09,17,00,7.50
2008,10,09,17,01,7.50
2008,10,09,17,02,7.50
2008,10,09,17,03,7.40
2008,10,09,17,04,7.40
2008,10,09,17,05,7.50
2008,10,09,17,06,7.50
2008,10,09,17,07,7.50
2008,10,09,17,08,7.50
2008,10,09,17,09,7.50
2008,10,09,17,10,7.50
2008,10,09,17,11,7.50
2008,10,09,17,12,7.50
2008,10,09,17,13,7.50
2008,10,09,17,14,7.60
2008,10,09,17,15,7.60
2008,10,09,17,16,7.60
2008,10,09,17,17,7.60
2008,10,09,17,18,7.60
2008,10,09,17,19,7.60
2008,10,09,17,20,7.60
2008,10,09,17,21,7.60
2008,10,09,17,22,7.60
2008,10,09,17,23,7.60
2008,10,09,17,24,7.60
2008,10,09,17,25,7.60
2008,10,09,17,26,7.60
2008,10,09,17,27,7.60
2008,10,09,17,28,7.60
2008,10,09,17,29,7.60
2008,10,09,17,30,7.60
2008,10,09,17,31,7.60
2008,10,09,17,32,7.50
2008,10,09,17,33,7.50
2008,10,09,17,34,7.50
2008,10,09,17,35,7.50
2008,10,09,17,36,7.40
2008,10,09,17,37,7.40
2008,10,09,17,38,7.40
2008,10,09,17,39,7.40
2008,10,09,17,40,7.40
2008,10,09,17,41,7.30
2008,10,09,17,42,7.30
2008,10,09,17,43,7.30
2008,10,09,17,44,7.20
2008,10,09,17,45,7.20
2008,10,09,17,46,7.20
2008,10,09,17,47,7.20
2008,10,09,17,48,7.10
2008,10,09,17,49,7.10
2008,10,09,17,50,7.00
2008,10,09,17,51,7.00
2008,10,09,17,52,6.90
2008,10,09,17,53,6.90
2008,10,09,17,54,6.90
2008,10,09,17,55,6.80
2008,10,09,17,56,6.80
2008,10,09,17,57,6.80
2008,10,09,17,58,6.80
2008,10,09,17,59,6.70
2008,10,09,18,00,6.70
2008,10,09,18,01,6.70
2008,10,09,18,02,6.70
2008,10,09,18,03,6.70
2008,10,09,18,04,6.60
2008,10,09,18,05,6.60
2008,10,09,18,06,6.60